Regional Weather Roundup
Issued by NWS

Home | Current Version | Previous Version | Graphics & Text | Print | Product List | Glossary On
Versions: 1 2 3 4 5 6 7 8 9 10 11 12 13 14 15 16 17 18 19 20 21 22 23 24 25 26 27 28 29 30 31 32 33 34 35 36 37 38 39 40 41 42 43 44 45 46 47 48 49 50
000
ASUS43 KLMK 191310
RWRKY
KENTUCKY REGIONAL WEATHER ROUNDUP
NATIONAL WEATHER SERVICE LOUISVILLE KY
800 AM EST FRI DEC 19 2014

NOTE "FAIR" INDICATES FEW OR NO CLOUDS BELOW 12,000 FEET
WITH NO SIGNIFICANT WEATHER AND/OR OBSTRUCTIONS TO VISIBILITY.

KYZ001>023-026-027-061>063-070>075-191400-
WESTERN AND SOUTH CENTRAL KENTUCKY

CITY           SKY/WX    TMP DP  RH WIND       PRES   REMARKS
PADUCAH        CLOUDY    33  28  81 NE7       30.29R WCI  27
HENDERSON      CLOUDY    30  23  74 NE8       30.30S WCI  23
OWENSBORO      CLOUDY    31  25  78 N8        30.31R WCI  24
HOPKINSVILLE   CLOUDY    33  29  85 NE6       30.27R WCI  27
BOWLING GREEN  CLOUDY    32  27  81 N3        30.29R
GLASGOW        CLEAR     25  25 100 CALM      30.26F FOG
$$

KYZ024-025-028>034-038-045-046-053-191400-
NORTH CENTRAL KENTUCKY

CITY           SKY/WX    TMP DP  RH WIND       PRES   REMARKS
LOUISVILLE/SDF PTCLDY    27  22  81 N5        30.31R WCI  22
LOUISVILLE/LOU CLEAR     27  22  81 CALM      30.31R
FORT KNOX      PTCLDY    27  23  82 N3        30.28R
$$

KYZ035>037-039>044-047>052-055>060-089>105-191400-
NORTHEAST KENTUCKY

CITY           SKY/WX    TMP DP  RH WIND       PRES   REMARKS
LEXINGTON      PTCLDY    25  22  88 CALM      30.28R
COVINGTON      CLOUDY    27  20  75 N3        30.26S
FRANKFORT      CLEAR     23  20  88 CALM      30.27R FOG
$$

KYZ054-064>069-076>088-106>120-191400-
SOUTHEAST KENTUCKY

CITY           SKY/WX    TMP DP  RH WIND       PRES   REMARKS
JACKSON        CLOUDY    29  23  78 CALM      30.24R
LONDON         CLOUDY    33  25  72 N6        30.23S WCI  28
SOMERSET       CLOUDY    30  27  86 NE5       30.27S WCI  25
MIDDLESBORO    CLOUDY    33  27  79 CALM      30.23S
MONTICELLO     SUNNY     25  24  96 CALM      30.28R FOG
$$




USA.gov is the U.S. government's official web portal to all federal, state and local government web resources and services.